CW3999 Weather Reports


Display with metric or nautical units.
time (UTC)temp
F
wind
direction
speed
MPH
gust
MPH
rain 1hr
in
rain 24hr
in
rain mn
in
humidity
%
barometer
mb
20260505230537 66 236 0.0 0.0 0.00 0.00 0.00 47 1014.2
20260505230040 66 236 0.0 0.0 0.00 0.00 0.00 43 1014.2
20260505225531 65 252 0.0 0.0 0.00 0.00 0.00 48 1014.2
20260505225031 65 252 0.0 0.0 0.00 0.00 0.00 49 1014.4
20260505224530 65 252 0.0 0.0 0.00 0.00 0.00 49 1014.4
20260505224027 66 252 0.0 0.0 0.00 0.00 0.00 50 1014.4
20260505222519 66 252 0.0 0.0 0.00 0.00 0.00 50 1014.5
20260505222016 66 253 0.0 0.0 0.00 0.00 0.00 48 1014.5
20260505221502 66 253 0.0 0.0 0.00 0.00 0.00 47 1014.6
20260505221004 66 253 0.0 0.0 0.00 0.00 0.00 46 1014.6
20260505220504 66 253 0.0 0.0 0.00 0.00 0.00 45 1014.6
20260505220004 65 253 0.0 0.0 0.00 0.00 0.00 44 1014.6
20260505215502 65 253 0.0 0.0 0.00 0.00 0.00 45 1014.5
20260505215003 64 253 0.0 0.0 0.00 0.00 0.00 39 1014.6
20260505214501 64 253 0.0 0.0 0.00 0.00 0.00 36 1014.6
20260505214002 64 253 0.0 0.0 0.00 0.00 0.00 36 1014.7
20260505213502 63 253 0.0 0.0 0.00 0.00 0.00 35 1014.7
20260505213000 63 253 0.0 0.0 0.00 0.00 0.00 30 1014.8
20260505212002 62 254 0.0 0.0 0.00 0.00 0.00 24 1014.8
20260505211504 62 254 0.0 0.0 0.00 0.00 0.00 32 1014.8
20260505211002 62 254 0.0 0.0 0.00 0.00 0.00 26 1014.8
20260505210001 62 254 0.0 0.0 0.00 0.00 0.00 26 1014.8
20260505205502 62 254 0.0 0.0 0.00 0.00 0.00 22 1014.9
20260505205003 61 254 0.0 0.0 0.00 0.00 0.00 24 1014.9
20260505204502 62 254 0.0 0.0 0.00 0.00 0.00 21 1015.0
20260505204002 62 254 0.0 0.0 0.00 0.00 0.00 23 1015.0
20260505203503 62 254 0.0 0.0 0.00 0.00 0.00 26 1015.0
20260505203004 62 254 0.0 0.0 0.00 0.00 0.00 22 1015.1
20260505202504 62 254 0.0 0.0 0.00 0.00 0.00 8 1015.1
20260505202004 62 254 0.0 0.0 0.00 0.00 0.00 100 1015.1
20260505201504 61 254 0.0 0.0 0.00 0.00 0.00 100 1015.1
20260505201002 60 254 0.0 0.0 0.00 0.00 0.00 100 1015.1
20260505200500 60 254 0.0 0.0 0.00 0.00 0.00 100 1015.1
20260505200003 60 254 0.0 0.0 0.00 0.00 0.00 100 1015.1
20260505195502 60 254 0.0 0.0 0.00 0.00 0.00 5 1015.2
20260505195002 60 254 0.0 0.0 0.00 0.00 0.00 7 1015.2
20260505194502 60 254 0.0 0.0 0.00 0.00 0.00 5 1015.2
20260505194002 60 254 0.0 0.0 0.00 0.00 0.00 2 1015.2
20260505193503 60 254 0.0 0.0 0.00 0.00 0.00 100 1015.1
20260505193004 60 254 0.0 0.0 0.00 0.00 0.00 100 1015.2
20260505192503 60 254 0.0 0.0 0.00 0.00 0.00 100 1015.2
20260505192004 59 254 0.0 0.0 0.00 0.00 0.00 100 1015.2
20260505191502 59 254 0.0 0.0 0.00 0.00 0.00 100 1015.2
20260505191003 59 254 0.0 0.0 0.00 0.00 0.00 100 1015.2
20260505190503 59 254 0.0 0.0 0.00 0.00 0.00 100 1015.2
20260505190004 59 254 0.0 0.0 0.00 0.00 0.00 100 1015.1
20260505185502 59 254 0.0 0.0 0.00 0.00 0.00 100 1015.1
20260505185003 60 254 0.0 0.0 0.00 0.00 0.00 1 1015.2
20260505184502 60 254 0.0 0.0 0.00 0.00 0.00 100 1015.1
20260505184001 60 254 0.0 0.0 0.00 0.00 0.00 7 1015.2
20260505183502 60 254 0.0 0.0 0.00 0.00 0.00 9 1015.1
20260505183005 60 254 0.0 0.0 0.00 0.00 0.00 11 1015.1
20260505182503 61 254 0.0 0.0 0.00 0.00 0.00 15 1015.1
20260505182004 61 254 0.0 0.0 0.00 0.00 0.00 24 1015.1
20260505181504 62 254 0.0 0.0 0.00 0.00 0.00 26 1015.0
20260505181002 62 253 0.0 0.0 0.00 0.00 0.00 19 1015.0
20260505180003 61 253 0.0 0.0 0.00 0.00 0.00 24 1014.9
20260505175506 61 253 0.0 0.0 0.00 0.00 0.00 9 1014.9
20260505175003 61 253 0.0 0.0 0.00 0.00 0.00 100 1015.0
20260505174503 60 253 0.0 0.0 0.00 0.00 0.00 100 1015.0
20260505174002 59 253 0.0 0.0 0.00 0.00 0.00 100 1015.0
20260505173501 59 253 0.0 0.0 0.00 0.00 0.00 100 1015.0
20260505172503 58 253 0.0 0.0 0.00 0.00 0.00 100 1015.0
20260505172002 58 253 0.0 0.0 0.00 0.00 0.00 100 1015.0
20260505171504 58 253 0.0 0.0 0.00 0.00 0.00 100 1014.9
20260505170001 57 253 0.0 0.0 0.00 0.00 0.00 100 1014.8
20260505165502 57 253 0.0 0.0 0.00 0.00 0.00 100 1014.7
20260505165000 56 254 0.0 0.0 0.00 0.00 0.00 100 1014.6
20260505164508 56 253 0.0 0.0 0.00 0.00 0.00 100 1014.7
20260505164004 56 253 0.0 0.0 0.00 0.00 0.00 100 1014.7
20260505163503 56 253 0.0 0.0 0.00 0.00 0.00 100 1014.7
20260505163004 55 253 0.0 0.0 0.00 0.00 0.00 100 1014.7
20260505162004 55 253 0.0 0.0 0.00 0.00 0.00 100 1014.6
20260505161503 55 254 0.0 0.0 0.00 0.00 0.00 100 1014.6
20260505161002 55 254 0.0 0.0 0.00 0.00 0.00 100 1014.7
20260505160502 55 253 0.0 0.0 0.00 0.00 0.00 100 1014.6
20260505152941 53 254 0.0 0.0 0.00 0.00 0.00 100 1014.6
20260505152430 53 253 0.0 0.0 0.00 0.00 0.00 100 1014.5
20260505151931 53 253 0.0 0.0 0.00 0.00 0.00 100 1014.5
20260505151429 53 254 0.0 0.0 0.00 0.00 0.00 100 1014.5
20260505150930 53 253 0.0 0.0 0.00 0.00 0.00 100 1014.5
20260505150430 53 254 0.0 0.0 0.00 0.00 0.00 100 1014.4
20260505140402 51 254 0.0 0.0 0.00 0.00 0.00 100 1013.9
20260505124903 51 234 0.0 0.0 0.00 0.00 0.00 100 1013.5
20260505124403 51 234 0.0 0.0 0.00 0.00 0.00 100 1013.5
20260505123902 51 234 0.0 0.0 0.00 0.00 0.00 100 1013.5
20260505123402 51 234 0.0 0.0 0.00 0.00 0.00 100 1013.4
20260505122902 51 234 0.0 0.0 0.00 0.00 0.00 100 1013.4
20260505122404 51 234 0.0 0.0 0.00 0.00 0.00 100 1013.4
20260505121404 51 234 0.0 0.0 0.00 0.00 0.00 100 1013.4
20260505120904 51 234 0.0 0.0 0.00 0.00 0.00 100 1013.4
20260505120332 51 234 0.0 0.0 0.00 0.00 0.00 100 1013.4
20260505115831 51 234 0.0 0.0 0.00 0.00 0.00 100 1013.3
20260505114830 51 234 0.0 0.0 0.00 0.00 0.00 100 1013.3
20260505114330 51 234 0.0 0.0 0.00 0.00 0.00 100 1013.3
20260505113831 51 234 0.0 0.0 0.00 0.00 0.00 100 1013.3
20260505112314 51 234 0.0 0.0 0.00 0.00 0.00 100 1013.3
20260505111803 51 234 0.0 0.0 0.00 0.00 0.00 100 1013.3
20260505110802 51 234 0.0 0.0 0.00 0.00 0.00 100 1013.2
20260505101804 51 234 0.0 0.0 0.00 0.00 0.00 100 1012.8
20260505101304 51 234 0.0 0.0 0.00 0.00 0.00 100 1012.8
20260505100804 51 234 0.0 0.0 0.00 0.00 0.00 100 1012.8
20260505100303 51 234 0.0 0.0 0.00 0.00 0.00 100 1012.7
20260505095804 51 234 0.0 0.0 0.00 0.00 0.00 100 1012.7
20260505094802 52 234 0.0 0.0 0.00 0.00 0.00 100 1012.7
20260505093802 52 234 0.0 0.0 0.00 0.00 0.00 100 1012.7
20260505093302 52 234 0.0 0.0 0.00 0.00 0.00 100 1012.5
20260505092305 52 234 0.0 0.0 0.00 0.00 0.00 100 1012.5
20260505091803 52 234 0.0 0.0 0.00 0.00 0.00 100 1012.5
20260505090302 53 234 0.0 0.0 0.00 0.00 0.00 100 1012.3
20260505085802 53 234 0.0 0.0 0.00 0.00 0.00 100 1012.3
20260505085304 53 234 0.0 0.0 0.00 0.00 0.00 100 1012.3
20260505084302 53 234 0.0 0.0 0.00 0.00 0.00 100 1012.2
20260505083803 53 234 0.0 0.0 0.00 0.00 0.00 100 1012.2
20260505082804 53 234 0.0 0.0 0.00 0.00 0.00 100 1012.2
20260505082304 53 234 0.0 0.0 0.00 0.00 0.00 100 1012.2
20260505081804 53 234 0.0 0.0 0.00 0.00 0.00 100 1012.2
20260505081310 53 234 0.0 0.0 0.00 0.00 0.00 100 1012.1
20260505080803 54 234 0.0 0.0 0.00 0.00 0.00 100 1011.9
20260505080302 54 234 0.0 0.0 0.00 0.00 0.00 100 1012.0
20260505075304 54 234 0.0 0.0 0.00 0.00 0.00 100 1011.9
20260505074802 54 234 0.0 0.0 0.00 0.00 0.00 100 1011.8
20260505074301 54 234 0.0 0.0 0.00 0.00 0.00 100 1011.7
20260505073803 54 234 0.0 0.0 0.00 0.00 0.00 100 1011.7
20260505073303 55 234 0.0 0.0 0.00 0.00 0.00 100 1011.6
20260505072302 55 234 0.0 0.0 0.00 0.00 0.00 100 1011.5
20260505071804 55 234 0.0 0.0 0.00 0.00 0.00 100 1011.5
20260505071303 56 234 0.0 0.0 0.00 0.00 0.00 100 1011.4
20260505070755 56 234 0.0 0.0 0.00 0.00 0.00 100 1011.4
20260505065755 57 234 0.0 0.0 0.00 0.00 0.00 100 1011.2
20260505065251 57 234 0.0 0.0 0.00 0.00 0.00 100 1011.2
20260505064747 58 234 0.0 0.0 0.00 0.00 0.00 100 1011.0
20260505064245 58 234 0.0 0.0 0.00 0.00 0.00 100 1011.0
20260505063731 58 234 0.0 0.0 0.00 0.00 0.00 100 1011.0
20260505062731 59 234 0.0 0.0 0.00 0.00 0.00 3 1010.7
20260505062227 59 234 0.0 0.0 0.00 0.00 0.00 2 1010.7
20260505061724 59 234 0.0 0.0 0.00 0.00 0.00 4 1010.7
20260505060717 60 234 0.0 0.0 0.00 0.00 0.00 9 1010.5
20260505060219 60 234 0.0 0.0 0.00 0.00 0.00 9 1010.6
20260505055215 60 234 0.0 0.0 0.00 0.00 0.00 12 1010.5
20260505054215 61 234 0.0 0.0 0.00 0.00 0.00 16 1010.6
20260505053710 61 234 0.0 0.0 0.00 0.00 0.00 19 1010.6
20260505053204 61 234 0.0 0.0 0.00 0.00 0.00 20 1010.5
20260505052704 62 234 0.0 0.0 0.00 0.00 0.00 20 1010.4
20260505052203 62 234 0.0 0.0 0.00 0.00 0.00 21 1010.4
20260505051703 62 234 0.0 0.0 0.00 0.00 0.00 21 1010.3
20260505051203 62 234 0.0 0.0 0.00 0.00 0.00 20 1010.3
20260505050203 62 234 0.0 0.0 0.00 0.00 0.00 21 1010.2
20260505041702 65 232 0.0 0.0 0.00 0.00 0.00 33 1009.7
20260505041203 65 232 0.0 0.0 0.00 0.00 0.00 34 1009.6
20260505040702 65 232 0.0 0.0 0.00 0.00 0.00 35 1009.5
20260505040202 66 232 0.0 0.0 0.00 0.00 0.00 37 1009.5
20260505035703 66 232 0.0 0.0 0.00 0.00 0.00 38 1009.4
20260505035204 66 232 0.0 0.0 0.00 0.00 0.00 38 1009.2
20260505034702 66 232 0.0 0.0 0.00 0.00 0.00 37 1009.2
20260505034202 66 232 0.0 0.0 0.00 0.00 0.00 37 1009.1
20260505033702 67 232 0.0 0.0 0.00 0.00 0.00 37 1009.0
20260505032702 67 232 0.0 0.0 0.00 0.00 0.00 41 1008.8
20260505031705 68 232 0.0 0.0 0.00 0.00 0.00 43 1008.8
20260505031204 68 232 0.0 0.0 0.00 0.00 0.00 44 1008.7
20260505030201 69 232 0.0 0.0 0.00 0.00 0.00 48 1008.5
20260505025704 69 232 0.0 0.0 0.00 0.00 0.00 48 1008.5
20260505025203 69 232 0.0 0.0 0.00 0.00 0.00 48 1008.5
20260505024703 70 232 0.0 0.0 0.00 0.00 0.00 48 1008.4
20260505024203 70 232 0.0 0.0 0.00 0.00 0.00 48 1008.4
20260505023647 70 232 0.0 0.0 0.00 0.00 0.00 48 1008.3
20260505023147 71 232 0.0 0.0 0.00 0.00 0.00 50 1008.4
20260505022629 71 232 0.0 0.0 0.00 0.00 0.00 50 1008.4
20260505022133 71 232 0.0 0.0 0.00 0.00 0.00 50 1008.3
20260505021632 71 232 0.0 0.0 0.00 0.00 0.00 50 1008.3
20260505021132 71 232 0.0 0.0 0.00 0.00 0.00 50 1008.3
20260505020130 72 232 0.0 0.0 0.00 0.00 0.00 51 1008.3
20260505015123 72 234 0.0 0.0 0.00 0.00 0.00 50 1008.3
20260505014622 72 234 0.0 0.0 0.00 0.00 0.00 51 1008.2
20260505014124 72 234 0.0 0.0 0.00 0.00 0.00 50 1008.2
20260505013607 73 234 0.0 0.0 0.00 0.00 0.00 49 1008.3
20260505013103 73 234 0.0 0.0 0.00 0.00 0.00 49 1008.3
20260505012602 73 234 0.0 0.0 0.00 0.00 0.00 49 1008.3
20260505012101 73 234 0.0 0.0 0.00 0.00 0.00 49 1008.3
20260505011102 73 234 0.0 0.0 0.00 0.00 0.00 51 1008.4
20260505010604 73 282 0.0 0.0 0.00 0.00 0.00 51 1008.5
20260505010104 74 282 0.0 0.0 0.00 0.00 0.00 51 1008.5
20260505005601 74 282 0.0 0.0 0.00 0.00 0.00 50 1008.5
20260505005103 74 282 0.0 0.0 0.00 0.00 0.00 50 1008.5
20260505004604 74 282 0.0 0.0 0.00 0.00 0.00 49 1008.6
20260505004105 74 282 0.0 0.0 0.00 0.00 0.00 51 1008.6
20260505003602 74 282 0.0 0.0 0.00 0.00 0.00 51 1008.6
20260505003101 74 282 0.0 0.0 0.00 0.00 0.00 50 1008.6
20260505002602 74 282 0.0 0.0 0.00 0.00 0.00 50 1008.6
20260505002103 74 282 0.0 0.0 0.00 0.00 0.00 51 1008.5
20260505001102 74 282 0.0 0.0 0.00 0.00 0.00 51 1008.6
20260505000600 75 282 0.0 0.0 0.00 0.00 0.00 52 1008.8
20260505000104 75 282 0.0 0.0 0.00 0.00 0.00 51 1008.8
20260504235103 75 282 0.0 0.0 0.00 0.00 0.00 52 1008.8
20260504234600 75 282 0.0 0.0 0.00 0.00 0.00 52 1008.8
20260504233602 75 299 0.0 0.0 0.00 0.00 0.00 52 1008.9
20260504233101 75 299 0.0 0.0 0.00 0.00 0.00 51 1009.0
20260504232602 75 299 0.0 0.0 0.00 0.00 0.00 52 1009.1
20260504232102 75 300 0.0 0.0 0.00 0.00 0.00 52 1009.0
20260504231103 76 304 0.0 0.0 0.00 0.00 0.00 52 1009.1